QPF
0.02 0.03 0.03 0.03 0.03 0.04 0.05 0.04 0.04 0.05 0.06 0.06 0.05 0.04 0.03 0.02 0.02 0.02 0.02 0.02 0.02 0.02 0.01 0.01 0.01 0.01 0.02 0.03 0.03 0.03 0.03 0.03 0.02 0.02 0.02 0.02 0.02 0.01 0.01 0.01 0.01 0.01 0.01 0.01
0.01 0.02 0.02 0.01 0.02 0.03 0.04 0.05 0.05 0.05 0.07 0.06 0.05 0.03 0.03 0.03 0.03 0.03 0.03 0.03 0.03 0.02 0.02 0.02 0.01 0.01 0.02 0.02 0.02 0.02 0.03 0.03 0.03 0.02 0.02 0.02 0.02 0.02 0.01 0.01 0.01 0.01 0.01 0.02
0.01 0.02 0.02 0.03 0.05 0.04 0.05 0.06 0.06 0.07 0.08 0.05 0.05 0.04 0.04 0.04 0.03 0.03 0.03 0.03 0.03 0.02 0.02 0.02 0.02 0.01 0.02 0.02 0.02 0.02 0.02 0.03 0.03 0.02 0.02 0.02 0.01 0.01 0.01 0.01 0.01 0.01 0.01 0.02
0.01 0.01 0.03 0.06 0.04 0.04 0.04 0.05 0.06 0.06 0.06 0.07 0.08 0.07 0.06 0.05 0.04 0.04 0.04 0.04 0.03 0.03 0.02 0.02 0.02 0.01 0.01 0.02 0.02 0.02 0.02 0.02 0.02 0.02 0.02 0.01 0.01 0.01 0.01 0.01 0.01 0.01 0.01 0.02
0.01 0.02 0.03 0.03 0.02 0.04 0.04 0.04 0.04 0.05 0.05 0.05 0.05 0.03 0.04 0.05 0.04 0.04 0.04 0.05 0.05 0.04 0.03 0.02 0.02 0.02 0.01 0.01 0.01 0.01 0.02 0.02 0.02 0.02 0.02 0.01 0.01 0.01 0.01 0.01 0.01 0.01 0.01 0.02
0.01 0.03 0.04 0.04 0.02 0.02 0.03 0.03 0.03 0.04 0.04 0.03 0.02 0.03 0.04 0.03 0.03 0.04 0.03 0.04 0.04 0.04 0.03 0.02 0.03 0.02 0.02 0.01 0.01 0.01 0.01 0.01 0.02 0.02 0.01 0.01 0.01 0.01 0.01 0.01 0.01 0.01 0.01 0.01
0.01 0.02 0.03 0.04 0.01 0.01 0.03 0.04 0.03 0.03 0.03 0.03 0.03 0.04 0.03 0.02 0.02 0.03 0.03 0.03 0.03 0.03 0.03 0.03 0.03 0.03 0.02 0.02 0.01 0.01 0.01 0.01 0.02 0.02 0.02 0.01 0.01 0.01 0.01 0.01 0.01 0.01 0.01 0.01
0.01 0.02 0.03 0.02 0.01 0.04 0.06 0.04 0.03 0.03 0.03 0.03 0.03 0.02 0.01 0.02 0.02 0.02 0.02 0.02 0.02 0.03 0.03 0.02 0.02 0.03 0.02 0.02 0.01 0.01 0.01 0.01 0.02 0.02 0.02 0.02 0.02 0.02 0.01 0.01 0.02 0.01 0.01 0.01
0.03 0.04 0.04 0.03 0.04 0.05 0.04 0.03 0.03 0.04 0.04 0.04 0.03 0.02 0.02 0.02 0.02 0.02 0.02 0.02 0.02 0.02 0.02 0.02 0.02 0.02 0.03 0.01 0.01 0.01 0.02 0.01 0.01 0.02 0.02 0.02 0.03 0.03 0.03 0.02 0.02 0.02 0.02 0.02
0.02 0.02 0.02 0.02 0.01 0.02 0.02 0.03 0.03 0.03 0.03 0.03 0.04 0.03 0.03 0.03 0.03 0.02 0.02 0.02 0.03 0.02 0.02 0.02 0.02 0.02 0.02 0.01 0.01 0.01 0.02 0.02 0.02 0.02 0.02 0.02 0.03 0.03 0.03 0.03 0.03 0.03 0.02 0.02
0.01 0.01 0.01 0.01 0.01 0.01 0.01 0.02 0.02 0.02 0.02 0.03 0.03 0.04 0.04 0.04 0.04 0.04 0.04 0.04 0.04 0.04 0.03 0.03 0.02 0.03 0.02 0.01 0.01 0.02 0.02 0.04 0.04 0.03 0.03 0.03 0.04 0.04 0.04 0.04 0.03 0.04 0.03 0.02
0.02 0.02 0.02 0.02 0.01 0.01 0.01 0.02 0.02 0.02 0.02 0.02 0.03 0.04 0.04 0.05 0.05 0.05 0.06 0.06 0.06 0.06 0.05 0.05 0.04 0.05 0.04 0.03 0.03 0.03 0.03 0.03 0.03 0.03 0.03 0.04 0.04 0.04 0.04 0.04 0.04 0.03 0.03 0.03
0.02 0.02 0.01 0.01 0.01 0.01 0.01 0.02 0.02 0.03 0.03 0.03 0.03 0.04 0.04 0.05 0.05 0.05 0.05 0.05 0.06 0.07 0.06 0.07 0.07 0.07 0.06 0.04 0.04 0.04 0.03 0.03 0.03 0.03 0.03 0.03 0.04 0.03 0.03 0.04 0.04 0.03 0.02 0.02
0.01 0.01 0.01 0.01 0.01 0.01 0.01 0.02 0.02 0.02 0.02 0.03 0.03 0.03 0.04 0.04 0.04 0.04 0.05 0.05 0.05 0.06 0.06 0.06 0.06 0.06 0.07 0.05 0.04 0.04 0.04 0.04 0.04 0.03 0.03 0.03 0.04 0.04 0.04 0.04 0.04 0.03 0.03 0.02
0.01 0.01 0.02 0.02 0.01 0.01 0.01 0.01 0.01 0.01 0.02 0.02 0.03 0.03 0.03 0.04 0.04 0.04 0.04 0.04 0.04 0.04 0.05 0.05 0.04 0.05 0.05 0.05 0.04 0.04 0.04 0.04 0.04 0.05 0.04 0.04 0.04 0.04 0.05 0.04 0.04 0.04 0.03 0.03
0.01 0.01 0.01 0.01 0.01 0.01 0.01 0.02 0.02 0.02 0.02 0.02 0.02 0.03 0.04 0.04 0.04 0.03 0.03 0.04 0.03 0.04 0.04 0.04 0.04 0.03 0.03 0.03 0.03 0.03 0.03 0.03 0.04 0.04 0.04 0.04 0.04 0.04 0.04 0.04 0.04 0.03 0.04 0.03
0.01 0.01 0.01 0.01 0.01 0.02 0.02 0.02 0.02 0.02 0.02 0.02 0.02 0.02 0.03 0.02 0.02 0.02 0.03 0.03 0.04 0.04 0.04 0.03 0.03 0.03 0.03 0.03 0.02 0.03 0.03 0.03 0.04 0.04 0.04 0.04 0.04 0.04 0.03 0.03 0.03 0.03 0.03 0.03
0.01 0.01 0.01 0.02 0.02 0.02 0.02 0.02 0.02 0.02 0.02 0.02 0.02 0.02 0.02 0.02 0.02 0.02 0.03 0.03 0.03 0.03 0.03 0.03 0.03 0.03 0.03 0.03 0.03 0.03 0.03 0.03 0.04 0.04 0.04 0.04 0.04 0.03 0.03 0.03 0.02 0.02 0.03 0.03
0.01 0.01 0.01 0.01 0.01 0.02 0.02 0.02 0.02 0.02 0.02 0.02 0.02 0.02 0.03 0.03 0.03 0.03 0.03 0.02 0.02 0.03 0.03 0.03 0.03 0.03 0.03 0.03 0.03 0.03 0.03 0.03 0.03 0.03 0.03 0.03 0.02 0.02 0.02 0.02 0.02 0.02 0.03 0.03
0.01 0.01 0.01 0.01 0.01 0.01 0.02 0.02 0.02 0.02 0.02 0.02 0.02 0.02 0.03 0.03 0.04 0.03 0.02 0.03 0.03 0.04 0.03 0.03 0.03 0.02 0.03 0.03 0.03 0.02 0.02 0.02 0.02 0.02 0.02 0.02 0.02 0.02 0.02 0.02 0.02 0.02 0.02 0.02
0.00 0.01 0.01 0.01 0.01 0.01 0.02 0.02 0.02 0.02 0.02 0.02 0.02 0.02 0.02 0.02 0.02 0.02 0.02 0.03 0.03 0.03 0.02 0.02 0.02 0.02 0.03 0.03 0.02 0.02 0.02 0.02 0.02 0.02 0.02 0.02 0.02 0.02 0.02 0.02 0.02 0.02 0.02 0.02
0.01 0.00 0.01 0.01 0.01 0.01 0.01 0.01 0.02 0.02 0.01 0.01 0.01 0.01 0.01 0.01 0.01 0.02 0.02 0.03 0.03 0.02 0.02 0.02 0.02 0.02 0.03 0.02 0.02 0.02 0.02 0.02 0.02 0.02 0.02 0.03 0.03 0.02 0.02 0.02 0.02 0.03 0.03 0.03
0.01 0.01 0.01 0.01 0.01 0.01 0.01 0.01 0.01 0.01 0.01 0.01 0.01 0.01 0.01 0.01 0.01 0.01 0.02 0.02 0.02 0.02 0.02 0.02 0.02 0.02 0.02 0.02 0.02 0.02 0.02 0.02 0.02 0.02 0.03 0.03 0.03 0.03 0.03 0.03 0.03 0.03 0.03 0.03
0.01 0.01 0.01 0.01 0.00 0.00 0.00 0.00 0.00 0.00 0.00 0.00 0.01 0.01 0.01 0.01 0.01 0.01 0.01 0.01 0.01 0.02 0.02 0.02 0.02 0.02 0.02 0.02 0.01 0.02 0.02 0.02 0.02 0.02 0.02 0.03 0.03 0.03 0.02 0.02 0.03 0.03 0.03 0.02
0.01 0.01 0.00 0.00 0.00 0.00 0.00 0.00 0.00 0.00 0.00 0.00 0.00 0.00 0.00 0.01 0.01 0.00 0.00 0.01 0.01 0.01 0.01 0.01 0.01 0.01 0.01 0.01 0.01 0.01 0.02 0.02 0.02 0.02 0.02 0.02 0.02 0.02 0.02 0.02 0.02 0.02 0.02 0.02
0.00 0.00 0.00 0.00 0.00 0.00 0.00 0.00 0.00 0.00 0.00 0.00 0.00 0.00 0.00 0.00 0.00 0.00 0.00 0.01 0.01 0.01 0.01 0.01 0.01 0.01 0.01 0.01 0.01 0.01 0.01 0.01 0.01 0.02 0.02 0.02 0.02 0.02 0.02 0.02 0.02 0.01 0.01 0.01
0.00 0.00 0.00 0.00 0.00 0.00 0.00 0.00 0.00 0.00 0.00 0.00 0.00 0.00 0.00 0.00 0.00 0.00 0.00 0.01 0.00 0.01 0.00 0.00 0.00 0.00 0.00 0.00 0.01 0.01 0.01 0.01 0.01 0.02 0.02 0.02 0.02 0.02 0.02 0.02 0.01 0.01 0.01 0.01
MSLP
1014.41 1014.16 1014.00 1013.91 1013.83 1013.71 1013.52 1013.22 1012.81 1012.31 1011.74 1011.14 1010.55 1010.01 1009.55 1009.18 1008.90 1008.71 1008.60 1008.57 1008.62 1008.75 1008.98 1009.31 1009.74 1010.27 1010.89 1011.55 1012.22 1012.87 1013.44 1013.92 1014.30 1014.57 1014.75 1014.88 1014.99 1015.11 1015.27 1015.48 1015.75 1016.05 1016.39 1016.73
1014.59 1014.27 1014.06 1013.93 1013.84 1013.74 1013.61 1013.40 1013.11 1012.73 1012.27 1011.77 1011.23 1010.68 1010.13 1009.62 1009.13 1008.69 1008.31 1008.01 1007.82 1007.76 1007.84 1008.10 1008.53 1009.12 1009.85 1010.66 1011.51 1012.34 1013.11 1013.77 1014.30 1014.71 1015.01 1015.23 1015.41 1015.58 1015.78 1016.01 1016.28 1016.60 1016.93 1017.27
1014.94 1014.57 1014.33 1014.19 1014.12 1014.07 1014.02 1013.91 1013.74 1013.48 1013.14 1012.70 1012.18 1011.60 1010.95 1010.26 1009.54 1008.84 1008.17 1007.59 1007.14 1006.86 1006.78 1006.94 1007.34 1007.95 1008.74 1009.68 1010.67 1011.66 1012.59 1013.42 1014.11 1014.67 1015.10 1015.43 1015.70 1015.94 1016.19 1016.46 1016.75 1017.08 1017.42 1017.76
1015.51 1015.12 1014.87 1014.74 1014.70 1014.70 1014.72 1014.71 1014.64 1014.48 1014.22 1013.83 1013.31 1012.66 1011.89 1011.03 1010.10 1009.13 1008.20 1007.35 1006.65 1006.15 1005.91 1005.95 1006.28 1006.87 1007.69 1008.68 1009.77 1010.87 1011.93 1012.89 1013.72 1014.41 1014.96 1015.41 1015.79 1016.11 1016.43 1016.75 1017.08 1017.43 1017.79 1018.15
1016.37 1015.97 1015.71 1015.58 1015.55 1015.59 1015.66 1015.71 1015.70 1015.60 1015.38 1015.01 1014.46 1013.75 1012.87 1011.84 1010.72 1009.54 1008.38 1007.30 1006.39 1005.71 1005.31 1005.23 1005.46 1006.00 1006.80 1007.79 1008.90 1010.05 1011.18 1012.22 1013.15 1013.95 1014.62 1015.18 1015.66 1016.08 1016.48 1016.86 1017.24 1017.63 1018.01 1018.39
1017.53 1017.12 1016.85 1016.70 1016.66 1016.69 1016.76 1016.82 1016.83 1016.74 1016.51 1016.12 1015.53 1014.74 1013.76 1012.61 1011.34 1010.00 1008.67 1007.43 1006.36 1005.54 1005.01 1004.81 1004.95 1005.40 1006.13 1007.07 1008.15 1009.29 1010.43 1011.51 1012.50 1013.37 1014.13 1014.78 1015.36 1015.88 1016.36 1016.81 1017.25 1017.69 1018.11 1018.51
1018.96 1018.54 1018.24 1018.05 1017.96 1017.94 1017.96 1017.97 1017.93 1017.80 1017.53 1017.08 1016.43 1015.56 1014.50 1013.26 1011.89 1010.46 1009.03 1007.70 1006.54 1005.62 1005.00 1004.70 1004.74 1005.10 1005.73 1006.58 1007.59 1008.67 1009.77 1010.83 1011.83 1012.75 1013.57 1014.31 1014.97 1015.58 1016.14 1016.67 1017.18 1017.66 1018.11 1018.55
1020.59 1020.15 1019.81 1019.54 1019.37 1019.25 1019.17 1019.08 1018.95 1018.72 1018.36 1017.83 1017.10 1016.17 1015.04 1013.75 1012.33 1010.86 1009.41 1008.04 1006.85 1005.89 1005.22 1004.86 1004.82 1005.08 1005.60 1006.35 1007.24 1008.23 1009.26 1010.28 1011.26 1012.19 1013.06 1013.86 1014.60 1015.28 1015.93 1016.53 1017.09 1017.61 1018.10 1018.55
1022.30 1021.84 1021.43 1021.08 1020.78 1020.54 1020.31 1020.08 1019.81 1019.45 1018.96 1018.33 1017.51 1016.51 1015.34 1014.03 1012.61 1011.15 1009.72 1008.39 1007.22 1006.27 1005.59 1005.20 1005.10 1005.28 1005.70 1006.33 1007.11 1007.99 1008.94 1009.90 1010.85 1011.78 1012.67 1013.52 1014.32 1015.08 1015.79 1016.45 1017.06 1017.62 1018.12 1018.59
1023.95 1023.46 1022.98 1022.52 1022.10 1021.69 1021.30 1020.90 1020.45 1019.93 1019.31 1018.56 1017.65 1016.58 1015.38 1014.06 1012.67 1011.27 1009.90 1008.64 1007.54 1006.64 1006.00 1005.61 1005.48 1005.60 1005.94 1006.48 1007.16 1007.95 1008.81 1009.71 1010.63 1011.55 1012.46 1013.34 1014.20 1015.01 1015.77 1016.48 1017.12 1017.71 1018.22 1018.69
1025.40 1024.88 1024.33 1023.76 1023.19 1022.62 1022.05 1021.46 1020.83 1020.14 1019.36 1018.48 1017.47 1016.35 1015.12 1013.81 1012.47 1011.13 1009.86 1008.70 1007.69 1006.89 1006.30 1005.95 1005.84 1005.93 1006.23 1006.70 1007.31 1008.02 1008.82 1009.68 1010.58 1011.50 1012.42 1013.34 1014.23 1015.08 1015.88 1016.62 1017.29 1017.88 1018.40 1018.85
1026.54 1025.99 1025.36 1024.68 1023.96 1023.23 1022.48 1021.70 1020.89 1020.02 1019.08 1018.07 1016.96 1015.78 1014.52 1013.24 1011.95 1010.70 1009.53 1008.48 1007.60 1006.91 1006.41 1006.13 1006.05 1006.17 1006.46 1006.90 1007.47 1008.15 1008.92 1009.76 1010.64 1011.57 1012.51 1013.46 1014.38 1015.26 1016.09 1016.85 1017.53 1018.12 1018.63 1019.06
1027.36 1026.75 1026.04 1025.25 1024.40 1023.50 1022.58 1021.62 1020.62 1019.58 1018.49 1017.34 1016.14 1014.89 1013.62 1012.35 1011.12 1009.96 1008.90 1007.98 1007.23 1006.65 1006.27 1006.08 1006.08 1006.24 1006.56 1007.01 1007.59 1008.27 1009.03 1009.87 1010.77 1011.71 1012.68 1013.65 1014.60 1015.50 1016.35 1017.12 1017.79 1018.38 1018.87 1019.28
1027.85 1027.19 1026.40 1025.50 1024.51 1023.47 1022.38 1021.25 1020.08 1018.88 1017.64 1016.37 1015.07 1013.77 1012.48 1011.23 1010.05 1008.97 1008.02 1007.22 1006.60 1006.16 1005.91 1005.82 1005.91 1006.14 1006.52 1007.02 1007.63 1008.33 1009.12 1009.99 1010.91 1011.88 1012.87 1013.86 1014.83 1015.76 1016.61 1017.38 1018.05 1018.62 1019.09 1019.48
1028.10 1027.38 1026.50 1025.49 1024.39 1023.21 1021.98 1020.70 1019.38 1018.03 1016.66 1015.27 1013.89 1012.53 1011.23 1009.99 1008.87 1007.87 1007.02 1006.35 1005.86 1005.55 1005.41 1005.44 1005.63 1005.95 1006.40 1006.96 1007.62 1008.37 1009.21 1010.11 1011.06 1012.06 1013.08 1014.09 1015.08 1016.01 1016.87 1017.63 1018.29 1018.84 1019.29 1019.65
1028.20 1027.41 1026.45 1025.37 1024.16 1022.88 1021.52 1020.11 1018.66 1017.19 1015.71 1014.23 1012.79 1011.39 1010.08 1008.87 1007.79 1006.86 1006.11 1005.55 1005.17 1004.98 1004.96 1005.10 1005.38 1005.79 1006.32 1006.94 1007.66 1008.46 1009.34 1010.28 1011.27 1012.29 1013.33 1014.36 1015.36 1016.29 1017.14 1017.89 1018.53 1019.06 1019.49 1019.83
1028.24 1027.40 1026.39 1025.24 1023.97 1022.60 1021.16 1019.67 1018.13 1016.57 1015.02 1013.48 1011.99 1010.57 1009.26 1008.08 1007.05 1006.20 1005.53 1005.06 1004.78 1004.69 1004.76 1004.99 1005.35 1005.83 1006.42 1007.10 1007.86 1008.70 1009.61 1010.58 1011.60 1012.64 1013.69 1014.72 1015.71 1016.63 1017.47 1018.20 1018.82 1019.33 1019.73 1020.04
1028.29 1027.42 1026.39 1025.22 1023.93 1022.53 1021.06 1019.52 1017.95 1016.35 1014.76 1013.20 1011.70 1010.29 1009.00 1007.85 1006.88 1006.08 1005.49 1005.09 1004.89 1004.86 1005.00 1005.28 1005.70 1006.22 1006.84 1007.55 1008.34 1009.20 1010.12 1011.10 1012.12 1013.16 1014.20 1015.22 1016.19 1017.09 1017.90 1018.60 1019.19 1019.66 1020.03 1020.32
1028.39 1027.52 1026.51 1025.37 1024.11 1022.74 1021.30 1019.78 1018.23 1016.65 1015.08 1013.54 1012.07 1010.70 1009.45 1008.35 1007.43 1006.69 1006.15 1005.80 1005.64 1005.65 1005.81 1006.12 1006.54 1007.07 1007.69 1008.39 1009.17 1010.02 1010.92 1011.88 1012.87 1013.89 1014.90 1015.89 1016.82 1017.68 1018.45 1019.11 1019.65 1020.09 1020.42 1020.65
1028.52 1027.71 1026.76 1025.70 1024.52 1023.24 1021.88 1020.45 1018.97 1017.47 1015.97 1014.51 1013.11 1011.80 1010.62 1009.58 1008.71 1008.02 1007.51 1007.19 1007.04 1007.05 1007.21 1007.49 1007.88 1008.38 1008.96 1009.62 1010.35 1011.15 1012.01 1012.92 1013.86 1014.82 1015.78 1016.70 1017.58 1018.38 1019.09 1019.69 1020.18 1020.56 1020.84 1021.03
1028.66 1027.93 1027.09 1026.14 1025.09 1023.95 1022.72 1021.43 1020.09 1018.71 1017.34 1015.99 1014.69 1013.48 1012.38 1011.41 1010.60 1009.94 1009.45 1009.13 1008.97 1008.95 1009.07 1009.30 1009.63 1010.05 1010.56 1011.15 1011.81 1012.53 1013.32 1014.14 1015.01 1015.89 1016.77 1017.61 1018.41 1019.13 1019.76 1020.29 1020.71 1021.03 1021.24 1021.37
1028.78 1028.15 1027.44 1026.63 1025.74 1024.76 1023.71 1022.59 1021.41 1020.20 1018.98 1017.77 1016.60 1015.50 1014.50 1013.60 1012.84 1012.22 1011.74 1011.41 1011.21 1011.15 1011.20 1011.35 1011.60 1011.94 1012.36 1012.85 1013.42 1014.04 1014.73 1015.46 1016.22 1017.00 1017.77 1018.51 1019.21 1019.83 1020.37 1020.82 1021.16 1021.40 1021.55 1021.62
1028.86 1028.34 1027.75 1027.09 1026.36 1025.56 1024.68 1023.74 1022.75 1021.71 1020.66 1019.60 1018.57 1017.60 1016.69 1015.87 1015.16 1014.57 1014.09 1013.74 1013.51 1013.39 1013.37 1013.45 1013.61 1013.85 1014.17 1014.57 1015.03 1015.55 1016.12 1016.74 1017.39 1018.05 1018.70 1019.33 1019.91 1020.42 1020.86 1021.20 1021.46 1021.63 1021.71 1021.72
1028.91 1028.48 1028.00 1027.47 1026.88 1026.23 1025.52 1024.75 1023.92 1023.05 1022.16 1021.25 1020.36 1019.49 1018.68 1017.94 1017.28 1016.71 1016.25 1015.88 1015.62 1015.45 1015.37 1015.37 1015.46 1015.62 1015.86 1016.16 1016.52 1016.94 1017.41 1017.91 1018.44 1018.97 1019.50 1019.99 1020.45 1020.84 1021.17 1021.41 1021.58 1021.68 1021.70 1021.66
1028.96 1028.59 1028.19 1027.75 1027.27 1026.74 1026.16 1025.52 1024.83 1024.10 1023.34 1022.56 1021.78 1021.02 1020.30 1019.62 1019.01 1018.48 1018.02 1017.66 1017.37 1017.17 1017.06 1017.02 1017.05 1017.16 1017.32 1017.55 1017.84 1018.16 1018.53 1018.92 1019.33 1019.74 1020.14 1020.50 1020.83 1021.10 1021.31 1021.46 1021.54 1021.56 1021.52 1021.44
1029.07 1028.72 1028.36 1027.97 1027.55 1027.09 1026.59 1026.03 1025.44 1024.81 1024.14 1023.46 1022.78 1022.10 1021.45 1020.84 1020.28 1019.79 1019.36 1019.01 1018.73 1018.53 1018.40 1018.34 1018.35 1018.42 1018.55 1018.73 1018.96 1019.21 1019.49 1019.79 1020.09 1020.37 1020.64 1020.88 1021.08 1021.23 1021.33 1021.38 1021.38 1021.33 1021.25 1021.13
1029.25 1028.91 1028.55 1028.17 1027.76 1027.33 1026.85 1026.34 1025.80 1025.22 1024.62 1024.01 1023.39 1022.79 1022.20 1021.65 1021.15 1020.70 1020.31 1019.99 1019.74 1019.56 1019.45 1019.40 1019.41 1019.48 1019.60 1019.75 1019.93 1020.13 1020.34 1020.55 1020.75 1020.93 1021.08 1021.19 1021.26 1021.30 1021.30 1021.25 1021.18 1021.07 1020.94 1020.79
Thickness
5326 5333 5334 5337 5342 5347 5349 5352 5355 5361 5365 5365 5368 5374 5382 5390 5399 5406 5414 5421 5428 5435 5441 5447 5453 5459 5465 5471 5477 5482 5487 5491 5494 5497 5499 5501 5502 5503 5504 5505 5507 5507 5507 5507
5317 5328 5328 5327 5327 5332 5334 5338 5342 5347 5348 5350 5354 5361 5367 5374 5382 5390 5397 5405 5412 5419 5425 5432 5438 5444 5450 5457 5463 5468 5473 5478 5481 5485 5487 5489 5491 5492 5493 5494 5495 5496 5497 5497
5304 5314 5317 5308 5308 5312 5314 5316 5322 5324 5326 5332 5339 5347 5352 5359 5365 5372 5380 5389 5397 5404 5410 5417 5423 5430 5436 5442 5449 5455 5459 5464 5468 5471 5474 5477 5479 5481 5482 5483 5484 5485 5486 5487
5290 5295 5285 5292 5298 5300 5303 5303 5303 5306 5311 5319 5326 5333 5341 5346 5351 5358 5365 5373 5381 5390 5397 5403 5410 5416 5423 5429 5436 5442 5446 5450 5454 5458 5461 5464 5467 5469 5470 5471 5472 5473 5474 5475
5279 5276 5280 5285 5288 5286 5289 5292 5291 5294 5301 5308 5316 5327 5333 5337 5339 5343 5351 5359 5367 5375 5382 5389 5397 5404 5410 5417 5423 5429 5433 5437 5441 5445 5449 5452 5455 5456 5458 5459 5460 5461 5463 5464
5267 5269 5267 5267 5277 5284 5286 5283 5283 5284 5289 5295 5302 5307 5318 5324 5327 5333 5340 5348 5355 5363 5370 5378 5385 5392 5398 5404 5410 5416 5421 5425 5430 5433 5437 5439 5442 5444 5446 5447 5449 5450 5451 5452
5254 5254 5257 5261 5268 5277 5268 5265 5272 5275 5279 5283 5287 5292 5302 5310 5316 5323 5330 5336 5344 5351 5358 5365 5372 5379 5386 5392 5398 5403 5408 5413 5418 5422 5425 5428 5430 5432 5434 5435 5437 5438 5439 5441
5246 5244 5248 5256 5258 5255 5253 5258 5262 5266 5270 5274 5280 5287 5293 5300 5307 5313 5320 5327 5333 5339 5346 5352 5359 5366 5372 5378 5385 5391 5396 5401 5405 5409 5413 5416 5418 5420 5421 5423 5424 5425 5426 5428
5241 5242 5245 5246 5246 5247 5248 5249 5253 5256 5261 5266 5272 5278 5284 5290 5297 5303 5310 5316 5322 5328 5334 5340 5347 5353 5359 5365 5372 5378 5383 5387 5392 5396 5400 5403 5405 5407 5409 5410 5412 5413 5414 5416
5237 5239 5237 5238 5239 5240 5240 5241 5245 5248 5252 5257 5263 5269 5275 5282 5288 5294 5300 5306 5312 5318 5323 5329 5335 5342 5347 5353 5360 5365 5370 5374 5379 5383 5386 5389 5392 5394 5396 5398 5400 5401 5403 5404
5228 5230 5232 5235 5233 5232 5234 5236 5238 5242 5245 5249 5254 5260 5266 5272 5278 5283 5289 5295 5301 5306 5312 5318 5324 5330 5336 5341 5347 5352 5357 5361 5365 5369 5373 5376 5378 5380 5383 5386 5388 5390 5391 5392
5221 5224 5222 5224 5226 5227 5228 5230 5232 5235 5239 5243 5246 5251 5258 5263 5268 5274 5279 5285 5290 5295 5301 5306 5311 5317 5323 5329 5335 5340 5345 5349 5352 5355 5359 5362 5365 5367 5370 5373 5376 5378 5380 5381
5219 5220 5219 5221 5221 5222 5222 5224 5227 5229 5232 5235 5240 5244 5249 5255 5260 5265 5270 5275 5280 5285 5290 5295 5300 5305 5311 5317 5323 5328 5332 5336 5339 5343 5346 5349 5352 5354 5357 5360 5363 5366 5368 5370
5216 5216 5216 5216 5215 5216 5217 5219 5221 5223 5225 5228 5232 5236 5241 5246 5251 5255 5260 5265 5270 5275 5280 5284 5289 5294 5299 5305 5311 5315 5319 5323 5327 5330 5333 5336 5339 5341 5344 5347 5350 5353 5356 5358
5212 5211 5210 5210 5210 5211 5212 5214 5215 5217 5219 5222 5225 5229 5233 5237 5241 5246 5250 5256 5261 5265 5270 5274 5279 5283 5288 5294 5298 5303 5307 5310 5314 5317 5320 5324 5327 5330 5333 5335 5338 5340 5343 5346
5208 5208 5207 5206 5206 5205 5206 5207 5209 5210 5212 5214 5217 5221 5224 5228 5232 5237 5241 5246 5250 5254 5259 5263 5268 5272 5277 5282 5286 5291 5294 5299 5302 5306 5309 5313 5316 5318 5321 5323 5325 5328 5331 5333
5203 5203 5202 5200 5199 5199 5199 5200 5201 5203 5205 5207 5210 5213 5217 5220 5225 5228 5232 5236 5240 5243 5248 5252 5256 5261 5266 5270 5274 5278 5282 5286 5291 5294 5297 5300 5303 5306 5308 5311 5313 5316 5318 5321
5198 5198 5196 5194 5193 5193 5193 5194 5195 5196 5197 5200 5203 5206 5208 5212 5215 5219 5222 5227 5230 5234 5238 5242 5247 5251 5256 5260 5264 5267 5271 5274 5278 5281 5285 5288 5291 5293 5296 5298 5301 5303 5305 5308
5195 5193 5192 5191 5189 5188 5187 5188 5189 5190 5191 5193 5196 5197 5200 5203 5207 5211 5214 5217 5221 5224 5229 5232 5238 5241 5245 5249 5253 5256 5260 5263 5266 5269 5272 5276 5278 5281 5283 5286 5288 5291 5293 5296
5190 5189 5187 5186 5185 5183 5182 5182 5183 5183 5185 5187 5189 5191 5193 5196 5199 5202 5205 5207 5210 5214 5219 5223 5228 5231 5235 5239 5243 5245 5248 5251 5254 5257 5260 5263 5266 5268 5271 5274 5276 5279 5281 5283
5184 5183 5182 5180 5179 5178 5177 5177 5177 5178 5179 5180 5182 5183 5186 5188 5191 5193 5196 5200 5203 5206 5211 5215 5218 5221 5225 5229 5233 5234 5237 5239 5242 5245 5248 5250 5253 5256 5259 5262 5264 5267 5269 5271
5178 5177 5176 5175 5174 5173 5172 5172 5172 5172 5173 5174 5176 5177 5179 5182 5184 5186 5188 5191 5195 5199 5203 5206 5209 5213 5216 5220 5222 5224 5226 5229 5231 5233 5236 5238 5241 5244 5247 5250 5252 5255 5257 5259
5173 5172 5170 5169 5169 5168 5168 5167 5167 5168 5168 5169 5170 5171 5173 5174 5176 5178 5182 5184 5187 5191 5195 5198 5201 5205 5209 5210 5212 5214 5216 5219 5221 5224 5226 5228 5231 5234 5236 5239 5241 5244 5246 5248
5168 5166 5165 5164 5163 5163 5163 5163 5163 5163 5163 5164 5166 5167 5168 5169 5171 5172 5174 5178 5181 5185 5187 5191 5194 5198 5200 5201 5202 5205 5207 5210 5212 5215 5217 5219 5222 5224 5226 5229 5231 5234 5236 5238
5163 5161 5160 5159 5159 5159 5159 5159 5158 5159 5159 5160 5161 5162 5163 5164 5165 5167 5169 5171 5175 5178 5180 5183 5187 5189 5191 5192 5194 5196 5199 5201 5204 5207 5209 5211 5214 5216 5218 5221 5223 5225 5228 5230
5157 5156 5155 5154 5154 5154 5154 5154 5154 5154 5155 5156 5157 5158 5159 5159 5160 5162 5164 5166 5169 5171 5173 5175 5177 5180 5182 5184 5186 5188 5190 5193 5196 5198 5201 5204 5207 5209 5211 5213 5215 5217 5219 5222
5153 5151 5151 5151 5151 5150 5149 5148 5148 5148 5149 5150 5151 5153 5154 5155 5156 5158 5159 5161 5162 5164 5166 5168 5170 5171 5173 5176 5178 5180 5183 5186 5189 5191 5194 5197 5199 5202 5204 5206 5208 5210 5212 5214